Atlantic - Newfoundland: Past 24 Hour Conditions

 

Charlottetown Airport

04:00 PM ADT 30 October 2014
This table is a summary of hourly weather conditions for the past 24 hours.
Date / Time
(ADT)
Wind(knots) Conditions Visibility(km) Pressure(kPa) Air tempC) Relative humidity(%) Dew pointC)
30 October 2014
16:00 NW 8 Partly Cloudy 24 100.8 12 65 5
15:00 W 7 Mostly Cloudy 24 100.8 11 66 5
14:00 WNW 9 Mostly Cloudy 24 100.8 12 67 6
13:00 W 5 Mostly Cloudy 24 100.8 11 70 6
12:00 W 10 Mostly Cloudy 24 100.8 11 74 6
11:00 WNW 11 Mostly Cloudy 24 100.8 11 71 6
10:00 W 9 gust 17 Partly Cloudy 24 100.8 10 81 7
9:00 WSW 5 Mostly Cloudy 24 100.8 10 83 7
8:00 W 7 Mostly Cloudy 24 100.7 10 83 8
7:00 W 6 Cloudy 24 100.6 11 81 8
6:00 WNW 11 gust 16 Mostly Cloudy 24 100.5 12 77 8
5:00 WSW 11 Mostly Cloudy 24 100.5 14 94 13
4:00 WSW 12 gust 19 Mostly Cloudy 24 100.4 14 93 13
3:00 WSW 6 Light Rainshower 8 100.4 15 97 14
2:00 S 8 Cloudy 13 100.4 15 94 14
1:00 S 6 Cloudy 13 100.4 14 96 14
0:00 S 5 Mostly Cloudy 13 100.5 14 97 14
29 October 2014
23:00 SSW 6 Mostly Cloudy 13 100.6 15 96 14
22:00 SSW 5 Mostly Cloudy 16 100.7 14 96 14
21:00 S 8 Mostly Cloudy 16 100.7 14 97 13
20:00 S 11 Cloudy 19 100.7 14 94 14
19:00 S 13 gust 18 Mostly Cloudy 24 100.7 15 91 14
18:00 S 12 Cloudy 24 100.8 15 88 13
17:00 SSE 11 Cloudy 24 100.9 15 88 13
16:00 SSE 15 Cloudy 24 101.0 14 86 12
 
Map of Atlantic - Newfoundland marine weather areas Southwestern Grand Banks - 44138 Banquereau - 44139 Tail of the Bank - 44140 Nickerson Bank - 44251 Northeast Burgeo Bank - 44255 Blanc-Sablon Airport Cap Whittle Chevery Natashquan Airport Heath Point Miscou Island Grand Étang Ingonish Beach North Mountain St.Paul Island J.A. Douglas McCurdy Sydney Airport Charlottetown Airport East Point North Cape Argentia Bonavista Burgeo Cape Race Corner Brook Daniel's Harbour Englee Ferolle Point La Scie Port aux Basques Rocky Harbour Sagona Island St. Anthony Airport St. John's Int'l Airport St. Lawrence Stephenville Airport Twillingate Winterland Wreckhouse Cartwright Airport Mary's Harbour Grates Cove Pool's Island Marticot Island Long Pond Îles de la Madeleine Airport
Legend: buoyBuoy land stationLand Station